NWS4860 UWGG-UMKK

Flight info

Callsign NWS4860
Flight time N/A
Altitude 36000
Route IBROT M864 TEKBO N858 BENIM M997 PODIL
Aircraft A21N/M-SDE2E3FGHIRWXY/LB1

Departure

Time 2026-04-08 19:20
Airport Nizhny Novgorod / Strigino International Airport (UWGG)

Arrival

Time N/A
Airport Khrabrovo Airport (UMKK)
Time Latitude Longitude Altitude Speed Heading
2026-04-08 18:29 56.21994 43.78860 255 ft 0 kts 102°
2026-04-08 19:05 56.21996 43.78842 254 ft 2 kts 104°
2026-04-08 19:05 56.21999 43.78816 254 ft 2 kts 101°
2026-04-08 19:05 56.22002 43.78790 254 ft 2 kts 104°
2026-04-08 19:05 56.22009 43.78766 254 ft 2 kts 133°
2026-04-08 19:06 56.22020 43.78749 254 ft 2 kts 153°
2026-04-08 19:06 56.22035 43.78741 254 ft 2 kts 175°
2026-04-08 19:06 56.22045 43.78741 254 ft 0 kts 189°
2026-04-08 19:06 56.22052 43.78744 254 ft 0 kts 192°
2026-04-08 19:17 56.22049 43.78743 254 ft 0 kts 192°
2026-04-08 19:17 56.22013 43.78729 253 ft 8 kts 192°
2026-04-08 19:18 56.21951 43.78706 253 ft 9 kts 192°
2026-04-08 19:18 56.21914 43.78619 252 ft 10 kts 260°
2026-04-08 19:18 56.21921 43.78482 251 ft 12 kts 282°
2026-04-08 19:18 56.21941 43.78321 249 ft 14 kts 282°
2026-04-08 19:19 56.21984 43.78222 249 ft 9 kts 14°
2026-04-08 19:19 56.22037 43.78232 249 ft 7 kts
2026-04-08 19:19 56.22070 43.78241 249 ft 0 kts 13°
2026-04-08 19:19 56.22123 43.78262 250 ft 34 kts 13°
2026-04-08 19:20 56.22604 43.78438 250 ft 104 kts 12°
2026-04-08 19:20 56.23508 43.78769 250 ft 160 kts 11°
2026-04-08 19:20 56.24756 43.79234 369 ft 195 kts 13°
2026-04-08 19:20 56.26071 43.79740 1039 ft 196 kts 15°
2026-04-08 19:21 56.27381 43.80228 1894 ft 193 kts 15°
2026-04-08 19:21 56.28663 43.80671 2609 ft 193 kts 16°
2026-04-08 19:21 56.30020 43.81168 2998 ft 210 kts 16°
2026-04-08 19:21 56.31536 43.81734 3346 ft 231 kts 16°
2026-04-08 19:22 56.33150 43.82331 3840 ft 246 kts 16°
2026-04-08 19:22 56.34832 43.82946 4549 ft 252 kts 15°
2026-04-08 19:22 56.36555 43.83576 5368 ft 254 kts 15°
2026-04-08 19:22 56.38244 43.84353 6154 ft 253 kts 28°
2026-04-08 19:23 56.39582 43.86281 6878 ft 251 kts 56°
2026-04-08 19:23 56.40286 43.89149 7594 ft 253 kts 80°
2026-04-08 19:23 56.40266 43.92303 8261 ft 258 kts 97°
2026-04-08 19:23 56.40012 43.95505 8763 ft 262 kts 97°
2026-04-08 19:24 56.39766 43.98750 8952 ft 263 kts 97°
2026-04-08 19:24 56.39521 44.02008 8933 ft 263 kts 97°
2026-04-08 19:24 56.39274 44.05299 8965 ft 263 kts 97°
2026-04-08 19:24 56.39031 44.08541 8968 ft 263 kts 97°
2026-04-08 19:25 56.38775 44.11779 8944 ft 263 kts 101°
2026-04-08 19:25 56.38069 44.14829 8954 ft 265 kts 123°
2026-04-08 19:25 56.36765 44.17158 8956 ft 270 kts 144°
2026-04-08 19:25 56.35040 44.18494 8947 ft 276 kts 165°
2026-04-08 19:26 56.33112 44.18570 8941 ft 283 kts 187°
2026-04-08 19:26 56.31213 44.17617 8953 ft 285 kts 194°
2026-04-08 19:26 56.29295 44.16522 9070 ft 290 kts 194°
2026-04-08 19:26 56.27380 44.15425 9759 ft 291 kts 194°
2026-04-08 19:27 56.25478 44.14343 10608 ft 290 kts 194°
2026-04-08 19:27 56.23525 44.13245 10994 ft 304 kts 194°
2026-04-08 19:27 56.21479 44.12104 11445 ft 314 kts 194°
2026-04-08 19:27 56.19379 44.10930 12147 ft 316 kts 194°
2026-04-08 19:28 56.17300 44.09769 12917 ft 316 kts 194°
2026-04-08 19:28 56.15220 44.08610 13621 ft 317 kts 194°
2026-04-08 19:28 56.13131 44.07435 14258 ft 320 kts 196°
2026-04-08 19:28 56.11142 44.05536 14878 ft 330 kts 214°
2026-04-08 19:29 56.09582 44.02526 15511 ft 339 kts 232°
2026-04-08 19:29 56.08346 43.98965 16185 ft 341 kts 234°
2026-04-08 19:29 56.07111 43.95297 16792 ft 343 kts 234°
2026-04-08 19:29 56.05886 43.91667 17414 ft 344 kts 234°
2026-04-08 19:30 56.04651 43.88035 18013 ft 346 kts 234°
2026-04-08 19:30 56.03405 43.84389 18591 ft 348 kts 233°
2026-04-08 19:30 56.02128 43.80674 19172 ft 350 kts 233°
2026-04-08 19:30 56.00858 43.76989 19678 ft 353 kts 233°
2026-04-08 19:31 55.99567 43.73253 20201 ft 356 kts 233°
2026-04-08 19:31 55.98274 43.69511 20713 ft 359 kts 233°
2026-04-08 19:31 55.96950 43.65693 21200 ft 362 kts 233°
2026-04-08 19:31 55.95633 43.61901 21691 ft 364 kts 233°
2026-04-08 19:32 55.94306 43.58086 22182 ft 366 kts 233°
2026-04-08 19:32 55.92948 43.54192 22660 ft 369 kts 233°
2026-04-08 19:32 55.91599 43.50323 23121 ft 371 kts 233°
2026-04-08 19:32 55.90244 43.46444 23579 ft 373 kts 233°
2026-04-08 19:33 55.88863 43.42499 24043 ft 375 kts 232°
2026-04-08 19:33 55.87477 43.38543 24489 ft 377 kts 232°
2026-04-08 19:33 55.86088 43.34592 24910 ft 380 kts 232°
2026-04-08 19:33 55.84687 43.30616 25379 ft 380 kts 231°
2026-04-08 19:34 55.83286 43.26644 25810 ft 382 kts 232°
2026-04-08 19:34 55.81898 43.22559 26206 ft 387 kts 237°
2026-04-08 19:34 55.81123 43.17900 26494 ft 406 kts 258°
2026-04-08 19:34 55.81319 43.12875 26851 ft 421 kts 279°
2026-04-08 19:35 55.82512 43.08106 27189 ft 433 kts 299°
2026-04-08 19:35 55.84246 43.03758 27586 ft 435 kts 302°
2026-04-08 19:35 55.86041 42.99356 27906 ft 438 kts 302°
2026-04-08 19:35 55.87809 42.94969 28130 ft 442 kts 301°
2026-04-08 19:36 55.89577 42.90525 28409 ft 445 kts 301°
2026-04-08 19:36 55.91342 42.86048 28731 ft 446 kts 301°
2026-04-08 19:36 55.93129 42.81488 29059 ft 447 kts 301°
2026-04-08 19:36 55.94894 42.76964 29352 ft 449 kts 301°
2026-04-08 19:37 55.96662 42.72422 29670 ft 450 kts 300°
2026-04-08 19:37 55.98461 42.67792 29947 ft 452 kts 300°
2026-04-08 19:37 56.00242 42.63198 30210 ft 454 kts 299°
2026-04-08 19:37 56.01819 42.58402 30472 ft 450 kts 291°
2026-04-08 19:38 56.03000 42.53316 30742 ft 445 kts 283°
2026-04-08 19:38 56.03780 42.47975 31007 ft 440 kts 275°
2026-04-08 19:38 56.04138 42.42633 31241 ft 435 kts 266°
2026-04-08 19:38 56.04207 42.37293 31482 ft 433 kts 264°
2026-04-08 19:39 56.04218 42.31914 31738 ft 433 kts 263°
2026-04-08 19:39 56.04222 42.26550 31895 ft 434 kts 263°
2026-04-08 19:39 56.04229 42.21112 32015 ft 436 kts 263°
2026-04-08 19:39 56.04239 42.15725 32116 ft 438 kts 264°
2026-04-08 19:40 56.04252 42.10299 32239 ft 439 kts 264°
2026-04-08 19:40 56.04265 42.04869 32356 ft 441 kts 264°
2026-04-08 19:40 56.04278 41.99347 32474 ft 442 kts 264°
2026-04-08 19:40 56.04290 41.93893 32574 ft 443 kts 265°
2026-04-08 19:41 56.04301 41.88426 32675 ft 444 kts 265°
2026-04-08 19:41 56.04309 41.82938 32785 ft 445 kts 265°
2026-04-08 19:41 56.04318 41.71856 32965 ft 448 kts 265°
2026-04-08 19:42 56.04318 41.60702 33131 ft 451 kts 265°
2026-04-08 19:42 56.04308 41.49555 33303 ft 453 kts 266°
2026-04-08 19:43 56.04287 41.38275 33476 ft 455 kts 266°
2026-04-08 19:43 56.04256 41.26989 33626 ft 457 kts 266°
2026-04-08 19:44 56.04214 41.15631 33783 ft 459 kts 266°
2026-04-08 19:44 56.04162 41.04272 33868 ft 461 kts 266°
2026-04-08 19:45 56.04100 40.92870 33866 ft 461 kts 266°
2026-04-08 19:45 56.04023 40.81399 33867 ft 461 kts 266°
2026-04-08 19:46 56.03938 40.69984 33861 ft 462 kts 266°
2026-04-08 19:46 56.03844 40.58599 33858 ft 462 kts 267°
2026-04-08 19:47 56.03737 40.47116 33869 ft 462 kts 267°
2026-04-08 19:47 56.03618 40.35638 33869 ft 463 kts 267°
2026-04-08 19:48 56.03488 40.24228 33875 ft 463 kts 266°
2026-04-08 19:48 56.03346 40.12707 33878 ft 462 kts 266°
2026-04-08 19:49 56.03194 40.01310 33882 ft 462 kts 266°
2026-04-08 19:49 56.03030 39.89818 33895 ft 463 kts 267°
2026-04-08 19:50 56.02857 39.78408 33897 ft 463 kts 267°
2026-04-08 19:50 56.02351 39.67022 33894 ft 463 kts 261°
2026-04-08 19:51 56.01096 39.55772 33891 ft 461 kts 254°
2026-04-08 19:51 55.99206 39.44938 33885 ft 461 kts 250°
2026-04-08 19:52 55.97181 39.34085 33885 ft 461 kts 250°
2026-04-08 19:52 55.95163 39.23298 33887 ft 461 kts 250°
2026-04-08 19:53 55.93127 39.12450 33887 ft 462 kts 250°
2026-04-08 19:53 55.91097 39.01694 33888 ft 461 kts 250°
2026-04-08 19:54 55.89040 38.90844 33889 ft 462 kts 250°
2026-04-08 19:54 55.86989 38.80098 33879 ft 463 kts 250°
2026-04-08 19:55 55.84911 38.69263 33888 ft 464 kts 250°
2026-04-08 19:55 55.82830 38.58479 33886 ft 465 kts 250°
2026-04-08 19:56 55.80725 38.47631 33884 ft 465 kts 250°
2026-04-08 19:56 55.78627 38.36876 33886 ft 465 kts 250°
2026-04-08 19:57 55.76507 38.26069 33894 ft 466 kts 249°
2026-04-08 19:57 55.74369 38.15231 33899 ft 466 kts 249°
2026-04-08 19:58 55.72223 38.04418 33895 ft 467 kts 249°
2026-04-08 19:58 55.70071 37.93637 33904 ft 467 kts 249°
2026-04-08 19:59 55.67896 37.82796 33901 ft 467 kts 249°
2026-04-08 19:59 55.65737 37.72020 33902 ft 468 kts 251°
2026-04-08 20:00 55.64013 37.60970 33899 ft 469 kts 256°
2026-04-08 20:00 55.62523 37.49739 33901 ft 470 kts 256°
2026-04-08 20:01 55.61024 37.38505 33900 ft 470 kts 256°
2026-04-08 20:01 55.59510 37.27285 33900 ft 470 kts 256°
2026-04-08 20:02 55.57990 37.16134 33897 ft 470 kts 256°
2026-04-08 20:02 55.56457 37.04981 33902 ft 471 kts 256°
2026-04-08 20:03 55.54921 36.93746 33904 ft 471 kts 257°
2026-04-08 20:03 55.53941 36.82422 33907 ft 471 kts 265°
2026-04-08 20:04 55.53811 36.70876 33909 ft 471 kts 273°
2026-04-08 20:04 55.54523 36.59404 33913 ft 471 kts 279°
2026-04-08 20:05 55.55526 36.48071 33915 ft 471 kts 280°
2026-04-08 20:05 55.56519 36.36757 33627 ft 461 kts 280°
2026-04-08 20:06 55.56982 36.31484 28963 ft 565 kts 277°
2026-04-08 20:06 55.57371 36.26646 18314 ft 603 kts 277°
2026-04-08 20:06 55.57729 36.21065 7906 ft 606 kts 275°
2026-04-08 20:06 55.58028 36.14345 1512 ft 595 kts 276°
2026-04-08 20:07 55.58335 36.08084 5414 ft 473 kts 271°
2026-04-08 20:07 55.58109 36.05487 12748 ft 224 kts 258°
2026-04-08 20:07 55.57819 36.03556 13257 ft 193 kts 244°
2026-04-08 20:07 55.57073 36.01144 10456 ft 299 kts 237°
2026-04-08 20:08 55.55903 35.97845 7805 ft 364 kts 238°
2026-04-08 20:08 55.54619 35.93812 5621 ft 396 kts 243°
2026-04-08 20:08 55.53521 35.89496 4463 ft 400 kts 247°
2026-04-08 20:08 55.52728 35.86231 2605 ft 421 kts 248°
2026-04-08 20:09 55.51923 35.81426 1882 ft 400 kts 260°
2026-04-08 20:09 55.51178 35.77123 1888 ft 353 kts 237°
2026-04-08 20:09 55.49478 35.74266 1299 ft 332 kts 214°
2026-04-08 20:09 55.47639 35.71999 1005 ft 305 kts 218°
2026-04-08 20:10 55.46111 35.69767 1039 ft 273 kts 223°
2026-04-08 20:10 55.44916 35.67446 1065 ft 244 kts 235°
2026-04-08 20:10 55.44103 35.64948 831 ft 222 kts 247°
2026-04-08 20:10 55.43559 35.62675 855 ft 188 kts 248°
2026-04-08 20:11 55.43119 35.60717 719 ft 146 kts 246°